Home > Weather > Qyzylorda > Past weeks

Flag for Kazakhstan Weather for the Past 2 Weeks in Qyzylorda, Kazakhstan

Now
32 °F

Low clouds.


Feels Like: 24 °F
Forecast: 18 / 29 °F
Wind: 10 mph from North

Location: Kzyl-Orda

Current Time: Feb 8, 2016 at 8:31:42 PM

Latest Report: Feb 8, 2016 at 8:00 PM


Visibility: N/A

Pressure: 30.15 "Hg

Humidity: 93%

Dew point: 30 °F

Location of QyzylordaLocation

Historic Weather in Qyzylorda — Graph

°F

Qyzylorda Temperature Yesterday

Maximum temperature yesterday: 59 °F (at 4:30 PM)
Minimum temperature yesterday: 34 °F (at 12:00 AM)
Average temperature yesterday: 42 °F

High & Low Weather Summary for the Past Weeks

 TemperatureHumidityPressure
High59 °F (Feb 7, 4:30 PM)100% (Jan 26, 10:00 PM)30.54 "Hg (Jan 26, 10:00 PM)
Low7 °F (Jan 28, 9:30 AM)36% (Feb 7, 4:30 PM)29.77 "Hg (Jan 26, 5:00 AM)
Average31 °F84%30.20 "Hg
* Reported Jan 24 7:00 PM — Feb 8 7:30 PM, Qyzylorda, Weather by CustomWeather, © 2016

Note: Actual official high and low records may vary slightly from our data, if they occured in-between our weather recording intervals... More about our weather records

Advertising

Qyzylorda Weather History for the Previous 24 Hours

 ConditionsComfort  
Time TempWeatherWind HumidityBarometerVisibility
7:30 PM
Mon, Feb 8
32 °FLow clouds.10 mph93%30.12 "HgN/A
7:00 PM34 °FLow clouds.8 mph93%30.09 "HgN/A
6:30 PM34 °FLow clouds.6 mph93%30.09 "HgN/A
6:00 PM34 °FLow clouds.8 mph93%30.09 "HgN/A
5:30 PM34 °FLow clouds.8 mph93%30.09 "HgN/A
5:00 PM32 °FLow clouds.10 mph100%30.07 "HgN/A
4:30 PM32 °FLow clouds.10 mph100%30.07 "HgN/A
4:00 PM32 °FLight snow. Low clouds.10 mph100%30.07 "Hg6 mi
3:30 PM32 °FLight snow. Low clouds.10 mph100%30.04 "Hg3 mi
3:00 PM32 °FLight snow. Low clouds.8 mph100%30.04 "Hg2 mi
2:30 PM32 °FSnow. Low clouds.8 mph100%30.04 "Hg2 mi
2:00 PM34 °FFog.13 mph100%30.04 "Hg2 mi
1:30 PM34 °FFog.10 mph100%30.04 "Hg2 mi
1:00 PM34 °FFog.8 mph100%30.01 "Hg2 mi
12:30 PM34 °FFog.6 mph100%30.01 "Hg1 mi
12:00 PM34 °FFog.6 mph100%30.01 "Hg1 mi
11:30 AM34 °FFog.6 mph100%30.01 "Hg1 mi
10:30 AM34 °FFog.1 mph100%30.01 "Hg1 mi
10:00 AM32 °FIce fog.6 mph100%30.01 "Hg1 mi
9:30 AM32 °FIce fog.6 mph100%29.98 "Hg1 mi
9:00 AM32 °FIce fog.6 mph100%29.98 "Hg1 mi
8:30 AM32 °FDrizzle. Ice fog.3 mph100%29.98 "Hg1 mi
8:00 AM32 °FDrizzle. Ice fog.6 mph100%29.95 "Hg1 mi
7:00 AM34 °FDrizzle. Fog.3 mph100%29.92 "Hg1 mi
6:30 AM34 °FFog.8 mph100%29.92 "Hg1 mi
6:00 AM34 °FFog.8 mph100%29.92 "Hg1 mi
5:30 AM34 °FFog.6 mph100%29.92 "Hg1 mi
5:00 AM34 °FFog.6 mph100%29.89 "Hg1 mi
4:00 AM34 °FFog.8 mph100%29.89 "Hg1 mi
3:00 AM34 °FFog.6 mph100%29.89 "Hg1 mi
2:00 AM34 °FFog.10 mph100%29.86 "Hg1 mi
1:00 AM36 °FFog.8 mph100%29.86 "Hg3 mi
12:00 AM36 °FFog.3 mph93%29.83 "Hg3 mi
11:30 PM
Sun, Feb 7
36 °FClear.3 mph93%29.83 "Hg10 mi
11:00 PM37 °FClear.3 mph93%29.83 "Hg10 mi
10:30 PM37 °FClear.3 mph93%29.83 "Hg10 mi
10:00 PM39 °FClear.3 mph87%29.80 "Hg10 mi
9:30 PM41 °FClear.3 mph81%29.80 "Hg10 mi
9:00 PM41 °FClear.8 mph81%29.80 "Hg10 mi
8:30 PM43 °FClear.3 mph76%29.80 "Hg10 mi
8:00 PM45 °FClear.1 mph76%29.77 "Hg10 mi
Weather by CustomWeather, © 2016

See weather overviewHow to use our weather pages